Location: Richmond
(37.5536°N, 77.4606°W)
Time: 02:07:32
(UTC-04:00)

ISS - Visible Passes

Search period start: 01 May 2016 00:00
Search period end: 11 May 2016 00:00
Orbit: 402 x 405 km, 51.6° (Epoch: 30 April)

Date Brightness Start Highest point End Pass type
(mag) Time Alt. Az. Time Alt. Az. Time Alt. Az.
05 May -0.6 05:34:20 10° SSE 05:36:08 14° SE 05:37:56 10° E visible
07 May -2.1 05:24:18 10° SSW 05:27:18 35° SE 05:30:20 10° ENE visible
08 May -1.1 04:33:34 14° SSE 04:34:56 18° SE 04:37:12 10° E visible
09 May -3.4 05:15:52 14° SW 05:18:34 82° NW 05:21:51 10° NE visible
10 May -2.7 04:25:26 39° S 04:26:05 45° SE 04:29:13 10° ENE visible
